"Time","Value","Approval","myLocation"
"2023-05-06 00:00",7.45340301838665,"Approved","OW458"
"2023-05-06 01:00",7.45840216813689,"Approved","OW458"
"2023-05-06 02:00",7.46140131788713,"Approved","OW458"
"2023-05-06 03:00",7.46440046763737,"Approved","OW458"
"2023-05-06 04:00",7.46639961738761,"Approved","OW458"
"2023-05-06 05:00",7.46839876713785,"Approved","OW458"
"2023-05-06 06:00",7.46739791688809,"Approved","OW458"
"2023-05-06 07:00",7.46839706663832,"Approved","OW458"
"2023-05-06 08:00",7.46639621638856,"Approved","OW458"
"2023-05-06 09:00",7.4673953661388,"Approved","OW458"
"2023-05-06 10:00",7.46639451588904,"Approved","OW458"
"2023-05-06 11:00",7.46639366563928,"Approved","OW458"
"2023-05-06 12:00",7.46739281538952,"Approved","OW458"
"2023-05-06 13:00",7.46639196513976,"Approved","OW458"
"2023-05-06 14:00",7.46739111489,"Approved","OW458"
"2023-05-06 15:00",7.46939026464024,"Approved","OW458"
"2023-05-06 16:00",7.47038941439048,"Approved","OW458"
"2023-05-06 17:00",7.47138856414072,"Approved","OW458"
"2023-05-06 18:00",7.47538771389095,"Approved","OW458"
"2023-05-06 19:00",7.47538686364119,"Approved","OW458"
"2023-05-06 20:00",7.47538601339143,"Approved","OW458"
"2023-05-06 21:00",7.47538516314167,"Approved","OW458"
"2023-05-06 22:00",7.47738431289191,"Approved","OW458"
"2023-05-06 23:00",7.47838346264215,"Approved","OW458"
"2023-05-07 00:00",7.47738261239239,"Approved","OW458"
"2023-05-07 01:00",7.47838176214263,"Approved","OW458"
"2023-05-07 02:00",7.47938091189287,"Approved","OW458"
"2023-05-07 03:00",7.47938006164311,"Approved","OW458"
"2023-05-07 04:00",7.48037921139335,"Approved","OW458"
"2023-05-07 05:00",7.48037836114359,"Approved","OW458"
"2023-05-07 06:00",7.48037751089383,"Approved","OW458"
"2023-05-07 07:00",7.48137666064406,"Approved","OW458"
"2023-05-07 08:00",7.4823758103943,"Approved","OW458"
"2023-05-07 09:00",7.48337496014454,"Approved","OW458"
"2023-05-07 10:00",7.48437410989478,"Approved","OW458"
"2023-05-07 11:00",7.48537325964502,"Approved","OW458"
"2023-05-07 12:00",7.48537240939526,"Approved","OW458"
"2023-05-07 13:00",7.4863715591455,"Approved","OW458"
"2023-05-07 14:00",7.48937070889574,"Approved","OW458"
"2023-05-07 15:00",7.49436985864598,"Approved","OW458"
"2023-05-07 16:00",7.49636900839622,"Approved","OW458"
"2023-05-07 17:00",7.49636815814646,"Approved","OW458"
"2023-05-07 18:00",7.49636730789669,"Approved","OW458"
"2023-05-07 19:00",7.49636645764693,"Approved","OW458"
"2023-05-07 20:00",7.49536560739717,"Approved","OW458"
"2023-05-07 21:00",7.49536475714741,"Approved","OW458"
"2023-05-07 22:00",7.49436390689765,"Approved","OW458"
"2023-05-07 23:00",7.49236305664789,"Approved","OW458"
"2023-05-08 00:00",7.48936220639813,"Approved","OW458"
"2023-05-08 01:00",7.48936135614837,"Approved","OW458"
"2023-05-08 02:00",7.48636050589861,"Approved","OW458"
"2023-05-08 03:00",7.48735965564885,"Approved","OW458"
"2023-05-08 04:00",7.49035880539909,"Approved","OW458"
"2023-05-08 05:00",7.49135795514932,"Approved","OW458"
"2023-05-08 06:00",7.49235710489956,"Approved","OW458"
"2023-05-08 07:00",7.4913562546498,"Approved","OW458"
"2023-05-08 08:00",7.48935540440004,"Approved","OW458"
"2023-05-08 09:00",7.48835455415028,"Approved","OW458"
"2023-05-08 10:00",7.48635370390052,"Approved","OW458"
"2023-05-08 11:00",7.48535285365076,"Approved","OW458"
"2023-05-08 12:00",7.483352003401,"Approved","OW458"
"2023-05-08 13:00",7.48535115315124,"Approved","OW458"
"2023-05-08 14:00",7.48735030290148,"Approved","OW458"
"2023-05-08 15:00",7.48734945265172,"Approved","OW458"
"2023-05-08 16:00",7.48534860240196,"Approved","OW458"
"2023-05-08 17:00",7.48334775215219,"Approved","OW458"
"2023-05-08 18:00",7.47934690190243,"Approved","OW458"
"2023-05-08 19:00",7.47934605165267,"Approved","OW458"
"2023-05-08 20:00",7.47834520140291,"Approved","OW458"
"2023-05-08 21:00",7.47634435115315,"Approved","OW458"
"2023-05-08 22:00",7.47534350090339,"Approved","OW458"
"2023-05-08 23:00",7.47434265065363,"Approved","OW458"
"2023-05-09 00:00",7.47434180040387,"Approved","OW458"
"2023-05-09 01:00",7.47534095015411,"Approved","OW458"
"2023-05-09 02:00",7.47834009990435,"Approved","OW458"
"2023-05-09 03:00",7.48133924965459,"Approved","OW458"
"2023-05-09 04:00",7.48533839940483,"Approved","OW458"
"2023-05-09 05:00",7.49033754915506,"Approved","OW458"
"2023-05-09 06:00",7.4923366989053,"Approved","OW458"
"2023-05-09 07:00",7.49233584865554,"Approved","OW458"
"2023-05-09 08:00",7.49333499840578,"Approved","OW458"
"2023-05-09 09:00",7.49833414815602,"Approved","OW458"
"2023-05-09 10:00",7.50333329790626,"Approved","OW458"
"2023-05-09 11:00",7.5073324476565,"Approved","OW458"
"2023-05-09 12:00",7.51033159740674,"Approved","OW458"
"2023-05-09 13:00",7.51333074715698,"Approved","OW458"
"2023-05-09 14:00",7.51832989690722,"Approved","OW458"
"2023-05-09 15:00",7.52532904665746,"Approved","OW458"
"2023-05-09 16:00",7.52332819640769,"Approved","OW458"
"2023-05-09 17:00",7.52332734615793,"Approved","OW458"
"2023-05-09 18:00",7.52532649590817,"Approved","OW458"
"2023-05-09 19:00",7.52632564565841,"Approved","OW458"
"2023-05-09 20:00",7.52332479540865,"Approved","OW458"
"2023-05-09 21:00",7.52032394515889,"Approved","OW458"
"2023-05-09 22:00",7.51732309490913,"Approved","OW458"
"2023-05-09 23:00",7.51332224465937,"Approved","OW458"
"2023-05-10 00:00",7.51132139440961,"Approved","OW458"
"2023-05-10 01:00",7.51032054415985,"Approved","OW458"
"2023-05-10 02:00",7.51231969391009,"Approved","OW458"
"2023-05-10 03:00",7.51331884366033,"Approved","OW458"
"2023-05-10 04:00",7.51831799341056,"Approved","OW458"
"2023-05-10 05:00",7.5193171431608,"Approved","OW458"
"2023-05-10 06:00",7.52031629291104,"Approved","OW458"
"2023-05-10 07:00",7.52031544266128,"Approved","OW458"
"2023-05-10 08:00",7.52131459241152,"Approved","OW458"
"2023-05-10 09:00",7.52031374216176,"Approved","OW458"
"2023-05-10 10:00",7.519312891912,"Approved","OW458"
"2023-05-10 11:00",7.52131204166224,"Approved","OW458"
"2023-05-10 12:00",7.52331119141248,"Approved","OW458"
"2023-05-10 13:00",7.52331034116272,"Approved","OW458"
"2023-05-10 14:00",7.52530949091296,"Approved","OW458"
"2023-05-10 15:00",7.52630864066319,"Approved","OW458"
"2023-05-10 16:00",7.52830779041343,"Approved","OW458"
"2023-05-10 17:00",7.52730694016367,"Approved","OW458"
"2023-05-10 18:00",7.52530608991391,"Approved","OW458"
"2023-05-10 19:00",7.52430523966415,"Approved","OW458"
"2023-05-10 20:00",7.52130438941439,"Approved","OW458"
"2023-05-10 21:00",7.51830353916463,"Approved","OW458"
"2023-05-10 22:00",7.51930268891487,"Approved","OW458"
"2023-05-10 23:00",7.51830183866511,"Approved","OW458"
"2023-05-11 00:00",7.51730098841535,"Approved","OW458"
"2023-05-11 01:00",7.51630013816559,"Approved","OW458"
"2023-05-11 02:00",7.51429928791583,"Approved","OW458"
"2023-05-11 03:00",7.51729843766606,"Approved","OW458"
"2023-05-11 04:00",7.5242975874163,"Approved","OW458"
"2023-05-11 05:00",7.53129673716654,"Approved","OW458"
"2023-05-11 06:00",7.53929588691678,"Approved","OW458"
"2023-05-11 07:00",7.54229503666702,"Approved","OW458"
"2023-05-11 08:00",7.54529418641726,"Approved","OW458"
"2023-05-11 09:00",7.5492933361675,"Approved","OW458"
"2023-05-11 10:00",7.55329248591774,"Approved","OW458"
"2023-05-11 11:00",7.55729163566798,"Approved","OW458"
"2023-05-11 12:00",7.56329078541822,"Approved","OW458"
"2023-05-11 13:00",7.56928993516846,"Approved","OW458"
"2023-05-11 14:00",7.5732890849187,"Approved","OW458"
"2023-05-11 15:00",7.57928823466893,"Approved","OW458"
"2023-05-11 16:00",7.58428738441917,"Approved","OW458"
"2023-05-11 17:00",7.58728653416941,"Approved","OW458"
"2023-05-11 18:00",7.58928568391965,"Approved","OW458"
"2023-05-11 19:00",7.58628483366989,"Approved","OW458"
"2023-05-11 20:00",7.58428398342013,"Approved","OW458"
"2023-05-11 21:00",7.58328313317037,"Approved","OW458"
"2023-05-11 22:00",7.58028228292061,"Approved","OW458"
"2023-05-11 23:00",7.57828143267085,"Approved","OW458"
"2023-05-12 00:00",7.57628058242109,"Approved","OW458"
"2023-05-12 01:00",7.57727973217133,"Approved","OW458"
"2023-05-12 02:00",7.57427888192156,"Approved","OW458"
"2023-05-12 03:00",7.5752780316718,"Approved","OW458"
"2023-05-12 04:00",7.57927718142204,"Approved","OW458"
"2023-05-12 05:00",7.58627633117228,"Approved","OW458"
"2023-05-12 06:00",7.59127548092252,"Approved","OW458"
"2023-05-12 07:00",7.59627463067276,"Approved","OW458"
"2023-05-12 08:00",7.602273780423,"Approved","OW458"
"2023-05-12 09:00",7.60827293017324,"Approved","OW458"
"2023-05-12 10:00",7.61027207992348,"Approved","OW458"
"2023-05-12 11:00",7.61227122967372,"Approved","OW458"
"2023-05-12 12:00",7.61427037942396,"Approved","OW458"
"2023-05-12 13:00",7.61826952917419,"Approved","OW458"
"2023-05-12 14:00",7.62326867892443,"Approved","OW458"
"2023-05-12 15:00",7.62826782867467,"Approved","OW458"
"2023-05-12 16:00",7.63226697842491,"Approved","OW458"
"2023-05-12 17:00",7.63426612817515,"Approved","OW458"
"2023-05-12 18:00",7.63626527792539,"Approved","OW458"
"2023-05-12 19:00",7.63526442767563,"Approved","OW458"
"2023-05-12 20:00",7.63426357742587,"Approved","OW458"
"2023-05-12 21:00",7.63326272717611,"Approved","OW458"
"2023-05-12 22:00",7.63026187692635,"Approved","OW458"
"2023-05-12 23:00",7.62926102667659,"Approved","OW458"
"2023-05-13 00:00",7.62726017642682,"Approved","OW458"
"2023-05-13 01:00",7.62725932617706,"Approved","OW458"
"2023-05-13 02:00",7.6252584759273,"Approved","OW458"
"2023-05-13 03:00",7.62825762567754,"Approved","OW458"
"2023-05-13 04:00",7.63125677542778,"Approved","OW458"
"2023-05-13 05:00",7.63625592517802,"Approved","OW458"
"2023-05-13 06:00",7.64125507492826,"Approved","OW458"
"2023-05-13 07:00",7.6442542246785,"Approved","OW458"
"2023-05-13 08:00",7.64925337442874,"Approved","OW458"
"2023-05-13 09:00",7.65225252417898,"Approved","OW458"
"2023-05-13 10:00",7.65725167392922,"Approved","OW458"
"2023-05-13 11:00",7.65925082367946,"Approved","OW458"
"2023-05-13 12:00",7.66424997342969,"Approved","OW458"
"2023-05-13 13:00",7.66624912317993,"Approved","OW458"
"2023-05-13 14:00",7.67424827293017,"Approved","OW458"
"2023-05-13 15:00",7.67824742268041,"Approved","OW458"
"2023-05-13 16:00",7.68124657243065,"Approved","OW458"
"2023-05-13 17:00",7.68024572218089,"Approved","OW458"
"2023-05-13 18:00",7.68024487193113,"Approved","OW458"
"2023-05-13 19:00",7.67624402168137,"Approved","OW458"
"2023-05-13 20:00",7.67524317143161,"Approved","OW458"
"2023-05-13 21:00",7.66824232118185,"Approved","OW458"
"2023-05-13 22:00",7.66324147093209,"Approved","OW458"
"2023-05-13 23:00",7.65624062068233,"Approved","OW458"
"2023-05-14 00:00",7.64923977043256,"Approved","OW458"
"2023-05-14 01:00",7.6442389201828,"Approved","OW458"
"2023-05-14 02:00",7.64123806993304,"Approved","OW458"
"2023-05-14 03:00",7.64123721968328,"Approved","OW458"
"2023-05-14 04:00",7.64723636943352,"Approved","OW458"
"2023-05-14 05:00",7.65123551918376,"Approved","OW458"
"2023-05-14 06:00",7.656234668934,"Approved","OW458"
"2023-05-14 07:00",7.65823381868424,"Approved","OW458"
"2023-05-14 08:00",7.65823296843448,"Approved","OW458"
"2023-05-14 09:00",7.66023211818472,"Approved","OW458"
"2023-05-14 10:00",7.65823126793496,"Approved","OW458"
"2023-05-14 11:00",7.6582304176852,"Approved","OW458"
"2023-05-14 12:00",7.66122956743543,"Approved","OW458"
"2023-05-14 13:00",7.66022871718567,"Approved","OW458"
"2023-05-14 14:00",7.66222786693591,"Approved","OW458"
"2023-05-14 15:00",7.66322701668615,"Approved","OW458"
"2023-05-14 16:00",7.66022616643639,"Approved","OW458"
"2023-05-14 17:00",7.65622531618663,"Approved","OW458"
"2023-05-14 18:00",7.65122446593687,"Approved","OW458"
"2023-05-14 19:00",7.64722361568711,"Approved","OW458"
"2023-05-14 20:00",7.64122276543735,"Approved","OW458"
"2023-05-14 21:00",7.63622191518759,"Approved","OW458"
"2023-05-14 22:00",7.63722106493783,"Approved","OW458"
"2023-05-14 23:00",7.63322021468806,"Approved","OW458"
"2023-05-15 00:00",7.6302193644383,"Approved","OW458"
"2023-05-15 01:00",7.63021851418854,"Approved","OW458"
"2023-05-15 02:00",7.63221766393878,"Approved","OW458"
"2023-05-15 03:00",7.63421681368902,"Approved","OW458"
"2023-05-15 04:00",7.64121596343926,"Approved","OW458"
"2023-05-15 05:00",7.6462151131895,"Approved","OW458"
"2023-05-15 06:00",7.64921426293974,"Approved","OW458"
"2023-05-15 07:00",7.65121341268998,"Approved","OW458"
"2023-05-15 08:00",7.65021256244022,"Approved","OW458"
"2023-05-15 09:00",7.65021171219046,"Approved","OW458"
"2023-05-15 10:00",7.6502108619407,"Approved","OW458"
"2023-05-15 11:00",7.64921001169093,"Approved","OW458"
"2023-05-15 12:00",7.64920916144117,"Approved","OW458"
"2023-05-15 13:00",7.65220831119141,"Approved","OW458"
"2023-05-15 14:00",7.65920746094165,"Approved","OW458"
"2023-05-15 15:00",7.66020661069189,"Approved","OW458"
"2023-05-15 16:00",7.66120576044213,"Approved","OW458"
"2023-05-15 17:00",7.65920491019237,"Approved","OW458"
"2023-05-15 18:00",7.65920405994261,"Approved","OW458"
"2023-05-15 19:00",7.65920320969285,"Approved","OW458"
"2023-05-15 20:00",7.65820235944309,"Approved","OW458"
"2023-05-15 21:00",7.65820150919333,"Approved","OW458"
"2023-05-15 22:00",7.65820065894357,"Approved","OW458"
"2023-05-15 23:00",7.6531998086938,"Approved","OW458"
"2023-05-16 00:00",7.65119895844404,"Approved","OW458"
"2023-05-16 01:00",7.65019810819428,"Approved","OW458"
"2023-05-16 02:00",7.65119725794452,"Approved","OW458"
"2023-05-16 03:00",7.65419640769476,"Approved","OW458"
"2023-05-16 04:00",7.663195557445,"Approved","OW458"
"2023-05-16 05:00",7.66819470719524,"Approved","OW458"
"2023-05-16 06:00",7.67519385694548,"Approved","OW458"
"2023-05-16 07:00",7.69219300669572,"Approved","OW458"
"2023-05-16 08:00",7.70119215644596,"Approved","OW458"
"2023-05-16 09:00",7.7131913061962,"Approved","OW458"
"2023-05-16 10:00",7.72219045594643,"Approved","OW458"
"2023-05-16 11:00",7.72518960569667,"Approved","OW458"
"2023-05-16 12:00",7.72718875544691,"Approved","OW458"
"2023-05-16 13:00",7.73018790519715,"Approved","OW458"
"2023-05-16 14:00",7.73818705494739,"Approved","OW458"
"2023-05-16 15:00",7.74218620469763,"Approved","OW458"
"2023-05-16 16:00",7.74718535444787,"Approved","OW458"
"2023-05-16 17:00",7.74818450419811,"Approved","OW458"
"2023-05-16 18:00",7.75118365394835,"Approved","OW458"
"2023-05-16 19:00",7.75018280369859,"Approved","OW458"
"2023-05-16 20:00",7.74618195344882,"Approved","OW458"
"2023-05-16 21:00",7.74318110319907,"Approved","OW458"
"2023-05-16 22:00",7.7361802529493,"Approved","OW458"
"2023-05-16 23:00",7.73117940269954,"Approved","OW458"
"2023-05-17 00:00",7.72517855244978,"Approved","OW458"
"2023-05-17 01:00",7.72517770220002,"Approved","OW458"
"2023-05-17 02:00",7.72617685195026,"Approved","OW458"
"2023-05-17 03:00",7.7291760017005,"Approved","OW458"
"2023-05-17 04:00",7.73017515145074,"Approved","OW458"
"2023-05-17 05:00",7.73917430120098,"Approved","OW458"
"2023-05-17 06:00",7.74017345095122,"Approved","OW458"
"2023-05-17 07:00",7.73417260070146,"Approved","OW458"
"2023-05-17 08:00",7.7381717504517,"Approved","OW458"
"2023-05-17 09:00",7.73917090020193,"Approved","OW458"
"2023-05-17 10:00",7.74017004995217,"Approved","OW458"
"2023-05-17 11:00",7.74016919970241,"Approved","OW458"
"2023-05-17 12:00",7.74116834945265,"Approved","OW458"
"2023-05-17 13:00",7.74516749920289,"Approved","OW458"
"2023-05-17 14:00",7.74716664895313,"Approved","OW458"
"2023-05-17 15:00",7.74616579870337,"Approved","OW458"
"2023-05-17 16:00",7.74616494845361,"Approved","OW458"
"2023-05-17 17:00",7.74316409820385,"Approved","OW458"
"2023-05-17 18:00",7.74316324795409,"Approved","OW458"
"2023-05-17 19:00",7.73916239770433,"Approved","OW458"
"2023-05-17 20:00",7.73516154745456,"Approved","OW458"
"2023-05-17 21:00",7.7321606972048,"Approved","OW458"
"2023-05-17 22:00",7.72815984695504,"Approved","OW458"
"2023-05-17 23:00",7.72215899670528,"Approved","OW458"
"2023-05-18 00:00",7.71815814645552,"Approved","OW458"
"2023-05-18 01:00",7.71615729620576,"Approved","OW458"
"2023-05-18 02:00",7.716156445956,"Approved","OW458"
"2023-05-18 03:00",7.71815559570624,"Approved","OW458"
"2023-05-18 04:00",7.72315474545648,"Approved","OW458"
"2023-05-18 05:00",7.73115389520672,"Approved","OW458"
"2023-05-18 06:00",7.73515304495696,"Approved","OW458"
"2023-05-18 07:00",7.74115219470719,"Approved","OW458"
"2023-05-18 08:00",7.74515134445743,"Approved","OW458"
"2023-05-18 09:00",7.75015049420767,"Approved","OW458"
"2023-05-18 10:00",7.75214964395791,"Approved","OW458"
"2023-05-18 11:00",7.75514879370815,"Approved","OW458"
"2023-05-18 12:00",7.75814794345839,"Approved","OW458"
"2023-05-18 13:00",7.76214709320863,"Approved","OW458"
"2023-05-18 14:00",7.76514624295887,"Approved","OW458"
"2023-05-18 15:00",7.77214539270911,"Approved","OW458"
"2023-05-18 16:00",7.77714454245935,"Approved","OW458"
"2023-05-18 17:00",7.78014369220959,"Approved","OW458"
"2023-05-18 18:00",7.78214284195983,"Approved","OW458"
"2023-05-18 19:00",7.78414199171006,"Approved","OW458"
"2023-05-18 20:00",7.7871411414603,"Approved","OW458"
"2023-05-18 21:00",7.78914029121054,"Approved","OW458"
"2023-05-18 22:00",7.79113944096078,"Approved","OW458"
"2023-05-18 23:00",7.79513859071102,"Approved","OW458"
"2023-05-19 00:00",7.79413774046126,"Approved","OW458"
"2023-05-19 01:00",7.7961368902115,"Approved","OW458"
"2023-05-19 02:00",7.79813603996174,"Approved","OW458"
"2023-05-19 03:00",7.80113518971198,"Approved","OW458"
"2023-05-19 04:00",7.81013433946222,"Approved","OW458"
"2023-05-19 05:00",7.81513348921246,"Approved","OW458"
"2023-05-19 06:00",7.8201326389627,"Approved","OW458"
"2023-05-19 07:00",7.82713178871293,"Approved","OW458"
"2023-05-19 08:00",7.82913093846317,"Approved","OW458"
"2023-05-19 09:00",7.83313008821341,"Approved","OW458"
"2023-05-19 10:00",7.83812923796365,"Approved","OW458"
"2023-05-19 11:00",7.84212838771389,"Approved","OW458"
"2023-05-19 12:00",7.84712753746413,"Approved","OW458"
"2023-05-19 13:00",7.85012668721437,"Approved","OW458"
"2023-05-19 14:00",7.85612583696461,"Approved","OW458"
"2023-05-19 15:00",7.85912498671485,"Approved","OW458"
"2023-05-19 16:00",7.85912413646509,"Approved","OW458"
"2023-05-19 17:00",7.85912328621533,"Approved","OW458"
"2023-05-19 18:00",7.85712243596557,"Approved","OW458"
"2023-05-19 19:00",7.8541215857158,"Approved","OW458"
"2023-05-19 20:00",7.85012073546604,"Approved","OW458"
"2023-05-19 21:00",7.84911988521628,"Approved","OW458"
"2023-05-19 22:00",7.84911903496652,"Approved","OW458"
"2023-05-19 23:00",7.84311818471676,"Approved","OW458"
"2023-05-20 00:00",7.837117334467,"Approved","OW458"
"2023-05-20 01:00",7.83411648421724,"Approved","OW458"
"2023-05-20 02:00",7.83011563396748,"Approved","OW458"
"2023-05-20 03:00",7.82911478371772,"Approved","OW458"
"2023-05-20 04:00",7.83511393346796,"Approved","OW458"
"2023-05-20 05:00",7.8411130832182,"Approved","OW458"
"2023-05-20 06:00",7.84311223296843,"Approved","OW458"
"2023-05-20 07:00",7.84511138271867,"Approved","OW458"
"2023-05-20 08:00",7.85011053246891,"Approved","OW458"
"2023-05-20 09:00",7.85210968221915,"Approved","OW458"
"2023-05-20 10:00",7.85510883196939,"Approved","OW458"
"2023-05-20 11:00",7.85910798171963,"Approved","OW458"
"2023-05-20 12:00",7.86210713146987,"Approved","OW458"
"2023-05-20 13:00",7.86910628122011,"Approved","OW458"
"2023-05-20 14:00",7.87510543097035,"Approved","OW458"
"2023-05-20 15:00",7.88110458072059,"Approved","OW458"
"2023-05-20 16:00",7.88410373047083,"Approved","OW458"
"2023-05-20 17:00",7.88110288022107,"Approved","OW458"
"2023-05-20 18:00",7.8811020299713,"Approved","OW458"
"2023-05-20 19:00",7.88110117972154,"Approved","OW458"
"2023-05-20 20:00",7.88110032947178,"Approved","OW458"
"2023-05-20 21:00",7.87809947922202,"Approved","OW458"
"2023-05-20 22:00",7.87609862897226,"Approved","OW458"
"2023-05-20 23:00",7.8720977787225,"Approved","OW458"
"2023-05-21 00:00",7.86909692847274,"Approved","OW458"
"2023-05-21 01:00",7.86809607822298,"Approved","OW458"
"2023-05-21 02:00",7.86809522797322,"Approved","OW458"
"2023-05-21 03:00",7.87009437772346,"Approved","OW458"
"2023-05-21 04:00",7.8730935274737,"Approved","OW458"
"2023-05-21 05:00",7.87609267722393,"Approved","OW458"
"2023-05-21 06:00",7.88109182697417,"Approved","OW458"
"2023-05-21 07:00",7.88609097672441,"Approved","OW458"
"2023-05-21 08:00",7.88809012647465,"Approved","OW458"
"2023-05-21 09:00",7.89208927622489,"Approved","OW458"
"2023-05-21 10:00",7.89608842597513,"Approved","OW458"
"2023-05-21 11:00",7.90008757572537,"Approved","OW458"
"2023-05-21 12:00",7.90508672547561,"Approved","OW458"
"2023-05-21 13:00",7.91008587522585,"Approved","OW458"
"2023-05-21 14:00",7.91408502497609,"Approved","OW458"
"2023-05-21 15:00",7.92008417472633,"Approved","OW458"
"2023-05-21 16:00",7.92508332447656,"Approved","OW458"
"2023-05-21 17:00",7.9280824742268,"Approved","OW458"
"2023-05-21 18:00",7.93008162397704,"Approved","OW458"
"2023-05-21 19:00",7.93508077372728,"Approved","OW458"
"2023-05-21 20:00",7.93307992347752,"Approved","OW458"
"2023-05-21 21:00",7.93207907322776,"Approved","OW458"
"2023-05-21 22:00",7.934078222978,"Approved","OW458"
"2023-05-21 23:00",7.93207737272824,"Approved","OW458"
"2023-05-22 00:00",7.93107652247848,"Approved","OW458"
"2023-05-22 01:00",7.92807567222872,"Approved","OW458"
"2023-05-22 02:00",7.92607482197896,"Approved","OW458"
"2023-05-22 03:00",7.92707397172919,"Approved","OW458"
"2023-05-22 04:00",7.93007312147943,"Approved","OW458"
"2023-05-22 05:00",7.93307227122967,"Approved","OW458"
"2023-05-22 06:00",7.93407142097991,"Approved","OW458"
"2023-05-22 07:00",7.93607057073015,"Approved","OW458"
"2023-05-22 08:00",7.93606972048039,"Approved","OW458"
"2023-05-22 09:00",7.93506887023063,"Approved","OW458"
"2023-05-22 10:00",7.93606801998087,"Approved","OW458"
"2023-05-22 11:00",7.93806716973111,"Approved","OW458"
"2023-05-22 12:00",7.93806631948135,"Approved","OW458"
"2023-05-22 13:00",7.93906546923159,"Approved","OW458"
"2023-05-22 14:00",7.94206461898183,"Approved","OW458"
"2023-05-22 15:00",7.94406376873207,"Approved","OW458"
"2023-05-22 16:00",7.9470629184823,"Approved","OW458"
"2023-05-22 17:00",7.94906206823254,"Approved","OW458"
"2023-05-22 18:00",7.95206121798278,"Approved","OW458"
"2023-05-22 19:00",7.95706036773302,"Approved","OW458"
"2023-05-22 20:00",7.96005951748326,"Approved","OW458"
"2023-05-22 21:00",7.9630586672335,"Approved","OW458"
"2023-05-22 22:00",7.96505781698374,"Approved","OW458"
"2023-05-22 23:00",7.96505696673398,"Approved","OW458"
"2023-05-23 00:00",7.96205611648422,"Approved","OW458"
"2023-05-23 01:00",7.96105526623446,"Approved","OW458"
"2023-05-23 02:00",7.95905441598469,"Approved","OW458"
"2023-05-23 03:00",7.95805356573493,"Approved","OW458"
"2023-05-23 04:00",7.95705271548517,"Approved","OW458"
"2023-05-23 05:00",7.95905186523541,"Approved","OW458"
"2023-05-23 06:00",7.95905101498565,"Approved","OW458"
"2023-05-23 07:00",7.96005016473589,"Approved","OW458"
"2023-05-23 08:00",7.96404931448613,"Approved","OW458"
"2023-05-23 09:00",7.96304846423637,"Approved","OW458"
"2023-05-23 10:00",7.96004761398661,"Approved","OW458"
"2023-05-23 11:00",7.95804676373685,"Approved","OW458"
"2023-05-23 12:00",7.96304591348709,"Approved","OW458"
"2023-05-23 13:00",7.96204506323733,"Approved","OW458"
"2023-05-23 14:00",7.96404421298757,"Approved","OW458"
"2023-05-23 15:00",7.9650433627378,"Approved","OW458"
"2023-05-23 16:00",7.96604251248804,"Approved","OW458"
"2023-05-23 17:00",7.96604166223828,"Approved","OW458"
"2023-05-23 18:00",7.96704081198852,"Approved","OW458"
"2023-05-23 19:00",7.96903996173876,"Approved","OW458"